Time[GMT],salinity[psu](1m),sigma_t[kg/m^3](1m),conductivity[msiemens/cm](1m),temperature[C](1m)
2019-06-02 15:00,,,,9.29
2019-06-02 16:00,,,,9.43
2019-06-02 17:00,,,,9.44
2019-06-02 18:00,,,,8.98
2019-06-02 19:00,,,,8.93
2019-06-02 20:00,,,,8.90
2019-06-02 21:00,,,,8.97
2019-06-02 22:00,,,,8.85
2019-06-02 23:00,,,,9.15
2019-06-03 00:00,,,,9.31
2019-06-03 01:00,,,,9.36
2019-06-03 02:00,,,,9.26
2019-06-03 03:00,,,,9.22
2019-06-03 04:00,,,,9.20
2019-06-03 05:00,,,,9.17
2019-06-03 06:00,,,,9.07
2019-06-03 07:00,,,,9.08
2019-06-03 08:00,,,,
2019-06-03 09:00,,,,8.43
2019-06-03 10:00,,,,8.46
2019-06-03 11:00,,,,8.55
2019-06-03 12:00,,,,
2019-06-03 13:00,31.188,24.228,32.950,8.37
2019-06-03 14:00,31.166,24.203,32.980,8.43
2019-06-03 15:00,31.165,24.165,33.190,8.68
2019-06-03 16:00,31.168,24.145,33.320,8.83
2019-06-03 17:00,31.177,24.153,33.320,8.82
2019-06-03 18:00,31.181,24.162,33.290,8.78
2019-06-03 19:00,31.220,24.155,33.540,9.03
2019-06-03 20:00,31.186,24.121,33.550,9.08
2019-06-03 21:00,31.207,24.127,33.630,9.15
2019-06-03 22:00,31.248,24.170,33.610,9.08
2019-06-03 23:00,31.249,24.180,33.560,9.02
2019-06-04 00:00,31.247,24.200,33.430,8.87
2019-06-04 01:00,31.242,24.221,33.290,8.71
2019-06-04 02:00,31.226,24.224,33.190,8.61
2019-06-04 03:00,31.265,24.295,32.990,8.33
2019-06-04 04:00,30.708,23.684,33.430,9.49
2019-06-04 05:00,30.781,23.760,33.400,9.37
2019-06-04 06:00,30.776,23.790,33.210,9.15
2019-06-04 07:00,30.887,23.917,33.100,8.89
2019-06-04 08:00,30.672,23.728,33.000,9.02
2019-06-04 09:00,30.655,23.712,33.000,9.04
2019-06-04 10:00,30.622,23.688,32.960,9.03
2019-06-04 11:00,30.730,23.768,33.090,9.06
2019-06-04 12:00,30.781,23.798,33.190,9.12
2019-06-04 13:00,,,,
2019-06-04 14:00,30.884,23.839,33.510,9.38
2019-06-04 15:00,30.937,23.858,33.680,9.52
2019-06-04 16:00,30.974,23.881,33.750,9.56
2019-06-04 17:00,31.026,23.931,33.750,9.50
2019-06-04 18:00,31.043,23.947,33.750,9.48
2019-06-04 19:00,30.755,23.675,33.720,9.78
2019-06-04 20:00,30.689,23.598,33.790,9.94
2019-06-04 21:00,30.709,23.614,33.810,9.94
2019-06-04 22:00,30.777,23.700,33.700,9.73
2019-06-04 23:00,30.769,23.702,33.650,9.68
2019-06-05 00:00,30.764,23.703,33.620,9.65
2019-06-05 01:00,30.798,23.746,33.560,9.54
2019-06-05 02:00,30.784,23.739,33.530,9.52
2019-06-05 03:00,30.695,23.647,33.560,9.66
2019-06-05 04:00,30.705,23.645,33.620,9.72
2019-06-05 05:00,30.749,23.686,33.630,9.68
2019-06-05 06:00,30.630,23.611,33.420,9.57
2019-06-05 07:00,30.508,23.476,33.510,9.82
2019-06-05 08:00,30.468,23.435,33.520,9.88
2019-06-05 09:00,30.424,23.404,33.460,9.86
2019-06-05 10:00,30.416,23.416,33.360,9.75
2019-06-05 11:00,30.349,23.360,33.310,9.77
2019-06-05 12:00,30.271,23.287,33.300,9.85
2019-06-05 13:00,30.292,23.293,33.370,9.91
2019-06-05 14:00,30.312,23.299,33.440,9.97
2019-06-05 15:00,30.256,23.212,33.610,10.24
2019-06-05 16:00,30.172,23.081,33.860,10.64
2019-06-05 17:00,30.132,23.009,34.020,10.88
2019-06-05 18:00,30.094,22.947,34.140,11.07
2019-06-05 19:00,30.256,23.077,34.280,11.04
2019-06-05 20:00,30.379,23.189,34.330,10.95
2019-06-05 21:00,30.415,23.274,34.080,10.61
2019-06-05 22:00,30.380,23.252,34.020,10.58
2019-06-05 23:00,30.361,23.216,34.110,10.71
2019-06-06 00:00,30.386,23.261,34.000,10.55
2019-06-06 01:00,30.393,23.238,34.150,10.72
2019-06-06 02:00,30.380,23.232,34.120,10.70
2019-06-06 03:00,30.405,23.234,34.230,10.80
2019-06-06 04:00,30.414,23.264,34.130,10.67
2019-06-06 05:00,30.442,23.350,33.830,10.28
2019-06-06 06:00,30.421,23.304,33.960,10.46
2019-06-06 07:00,30.426,23.303,33.990,10.49
2019-06-06 08:00,30.436,23.372,33.690,10.12
2019-06-06 09:00,30.359,23.339,33.470,9.95
2019-06-06 10:00,30.246,23.233,33.450,10.06
2019-06-06 11:00,30.230,23.198,33.550,10.20
2019-06-06 12:00,30.219,23.160,33.690,10.38
2019-06-06 13:00,30.259,23.181,33.780,10.44
2019-06-06 14:00,30.320,23.227,33.850,10.45
2019-06-06 15:00,30.369,23.255,33.950,10.51
2019-06-06 16:00,30.351,23.271,33.780,10.33
2019-06-06 17:00,30.461,23.366,33.840,10.27
2019-06-06 18:00,30.593,23.369,34.480,10.87
2019-06-06 19:00,30.914,23.635,34.720,10.77
2019-06-06 20:00,30.573,23.273,34.850,11.33
2019-06-06 21:00,30.568,23.104,35.630,12.25
2019-06-06 22:00,30.671,23.360,34.900,11.27
2019-06-06 23:00,30.753,23.383,35.180,11.50
2019-06-07 00:00,30.952,23.619,34.990,11.04
2019-06-07 01:00,30.991,23.624,35.150,11.18
2019-06-07 02:00,30.953,23.666,34.760,10.77
2019-06-07 03:00,30.872,23.628,34.550,10.62
2019-06-07 04:00,30.749,23.559,34.290,10.46
2019-06-07 05:00,30.643,23.484,34.150,10.42
2019-06-07 06:00,30.489,23.390,33.860,10.26
2019-06-07 07:00,30.438,23.256,34.280,10.82
2019-06-07 08:00,30.400,23.225,34.250,10.83
2019-06-07 09:00,30.277,23.092,34.310,11.05
2019-06-07 10:00,30.336,23.191,34.110,10.74
2019-06-07 11:00,30.385,23.251,34.050,10.61
2019-06-07 12:00,30.452,23.316,34.050,10.53
2019-06-07 13:00,30.838,23.706,33.980,9.99
2019-06-07 14:00,30.849,23.692,34.110,10.13
2019-06-07 15:00,30.886,23.691,34.300,10.31
2019-06-07 16:00,31.070,23.759,34.870,10.76
2019-06-07 17:00,31.127,23.794,34.970,10.81
2019-06-07 18:00,31.125,23.681,35.520,11.45
2019-06-07 19:00,31.231,23.830,35.300,11.07
2019-06-07 20:00,31.248,23.860,35.240,10.98
2019-06-07 21:00,31.243,23.961,34.700,10.36
2019-06-07 22:00,31.252,24.050,34.280,9.86
2019-06-07 23:00,31.249,23.970,34.680,10.33
2019-06-08 00:00,31.231,23.930,34.800,10.49
2019-06-08 01:00,31.231,23.918,34.860,10.56
2019-06-08 02:00,31.102,23.829,34.670,10.49
2019-06-08 03:00,31.056,23.777,34.710,10.59
2019-06-08 04:00,31.092,23.798,34.780,10.63
2019-06-08 05:00,30.983,23.689,34.790,10.77
2019-06-08 06:00,30.756,23.611,34.060,10.18
2019-06-08 07:00,30.775,23.628,34.070,10.17
2019-06-08 08:00,30.794,23.611,34.250,10.36
2019-06-08 09:00,30.913,23.647,34.660,10.70
2019-06-08 10:00,31.072,23.782,34.760,10.63
2019-06-08 11:00,30.970,23.683,34.760,10.75
2019-06-08 12:00,30.970,23.683,34.760,10.75
2019-06-08 13:00,31.015,23.687,34.960,10.93
2019-06-08 14:00,31.019,23.648,35.170,11.17
2019-06-08 15:00,30.916,23.487,35.460,11.63
2019-06-08 16:00,31.105,23.692,35.370,11.30
2019-06-08 17:00,31.296,23.736,36.070,11.88
2019-06-08 18:00,31.334,23.781,36.040,11.80
2019-06-08 19:00,31.334,23.781,36.040,11.80
2019-06-08 20:00,31.341,23.860,35.690,11.39
2019-06-08 21:00,31.311,23.903,35.330,11.01
2019-06-08 22:00,31.296,23.962,34.960,10.60
2019-06-08 23:00,31.275,23.910,35.120,10.81
2019-06-09 00:00,31.273,23.948,34.920,10.58
2019-06-09 01:00,31.202,23.768,35.470,11.30
2019-06-09 02:00,31.122,23.709,35.370,11.28
2019-06-09 03:00,31.068,23.686,35.220,11.17
2019-06-09 04:00,30.852,23.624,34.470,10.55
2019-06-09 05:00,30.912,23.624,34.770,10.83
2019-06-09 06:00,30.967,23.599,35.160,11.22
2019-06-09 07:00,31.181,23.741,35.500,11.36
2019-06-09 08:00,31.178,23.756,35.410,11.26
2019-06-09 09:00,31.136,23.739,35.290,11.17
2019-06-09 10:00,31.122,23.734,35.250,11.14
2019-06-09 11:00,31.121,23.735,35.240,11.13
2019-06-09 12:00,31.172,23.746,35.430,11.29
2019-06-09 13:00,31.190,23.762,35.440,11.28
2019-06-09 14:00,31.219,23.785,35.470,11.28
2019-06-09 15:00,31.118,23.658,35.600,11.55
2019-06-09 16:00,31.085,23.384,36.730,12.89
2019-06-09 17:00,31.192,23.667,35.910,11.82
2019-06-09 18:00,31.211,23.696,35.860,11.74
2019-06-09 19:00,31.220,23.703,35.870,11.74
2019-06-09 20:00,31.199,23.516,36.650,12.66
2019-06-09 21:00,31.182,23.574,36.300,12.28
2019-06-09 22:00,31.104,23.573,35.940,11.96
2019-06-09 23:00,,,,
2019-06-10 00:00,30.990,23.650,35.020,11.03
2019-06-10 01:00,30.977,23.668,34.870,10.87
2019-06-10 02:00,30.977,23.691,34.750,10.73
2019-06-10 03:00,30.974,23.704,34.670,10.64
2019-06-10 04:00,31.018,23.710,34.860,10.81
2019-06-10 05:00,31.048,23.733,34.890,10.81
2019-06-10 06:00,31.142,23.749,35.270,11.14
2019-06-10 07:00,31.195,23.811,35.220,11.02
2019-06-10 08:00,31.178,23.794,35.220,11.04
2019-06-10 09:00,31.052,23.755,34.800,10.70
2019-06-10 10:00,30.908,23.695,34.390,10.39
2019-06-10 11:00,30.865,23.653,34.390,10.44
2019-06-10 12:00,30.866,23.619,34.570,10.65
2019-06-10 13:00,30.849,23.580,34.680,10.80
2019-06-10 14:00,30.830,23.564,34.670,10.81
2019-06-10 15:00,30.820,23.521,34.830,11.01
2019-06-10 16:00,30.805,23.456,35.080,11.32
2019-06-10 17:00,30.809,23.391,35.410,11.70
2019-06-10 18:00,30.798,23.372,35.450,11.76
2019-06-10 19:00,30.791,23.363,35.460,11.78
2019-06-10 20:00,30.799,23.307,35.760,12.12
2019-06-10 21:00,30.801,23.345,35.590,11.92
2019-06-10 22:00,30.838,23.375,35.620,11.91
2019-06-10 23:00,30.853,23.380,35.670,11.95
2019-06-11 00:00,30.870,23.422,35.550,11.79
2019-06-11 01:00,30.902,23.469,35.480,11.67
2019-06-11 02:00,30.931,23.491,35.510,11.67
2019-06-11 03:00,31.072,23.579,35.760,11.79
2019-06-11 04:00,31.146,23.628,35.880,11.84
2019-06-11 05:00,31.142,23.698,35.520,11.43
2019-06-11 06:00,31.277,23.844,35.460,11.20
2019-06-11 07:00,31.378,23.984,35.250,10.84
2019-06-11 08:00,31.432,24.020,35.340,10.88
2019-06-11 09:00,31.438,24.030,35.320,10.85
2019-06-11 10:00,31.421,24.013,35.320,10.87
2019-06-11 11:00,31.396,24.000,35.260,10.83
2019-06-11 12:00,31.362,23.967,35.260,10.87
2019-06-11 13:00,31.238,23.890,35.040,10.76
2019-06-11 15:00,31.275,23.959,34.870,10.52
2019-06-11 16:00,31.303,23.996,34.820,10.43
2019-06-11 17:00,31.365,24.041,34.900,10.45
2019-06-11 18:00,31.280,23.969,34.840,10.48
2019-06-11 19:00,31.239,23.951,34.730,10.40
2019-06-11 20:00,31.187,23.924,34.610,10.32
2019-06-11 21:00,31.269,23.998,34.640,10.26
2019-06-11 22:00,31.290,23.989,34.790,10.41
2019-06-11 23:00,31.311,23.992,34.880,10.49
2019-06-12 00:00,31.331,24.007,34.900,10.49
2019-06-12 01:00,31.295,23.975,34.890,10.52
2019-06-12 02:00,31.147,23.893,34.570,10.32
2019-06-12 03:00,31.109,23.873,34.480,10.26
2019-06-12 04:00,,,,
2019-06-12 05:00,31.051,23.859,34.260,10.07
2019-06-12 06:00,31.043,23.884,34.090,9.88
2019-06-12 07:00,31.046,23.872,34.170,9.97
2019-06-12 08:00,31.063,23.844,34.400,10.22
2019-06-12 09:00,31.112,23.849,34.620,10.42
2019-06-12 10:00,31.120,23.857,34.620,10.41
2019-06-12 11:00,31.116,23.835,34.710,10.52
2019-06-12 12:00,31.124,23.831,34.770,10.58
2019-06-12 13:00,31.126,23.819,34.840,10.66
2019-06-12 14:00,31.141,23.800,35.010,10.84
2019-06-12 15:00,31.123,23.771,35.070,10.93
2019-06-12 16:00,31.134,23.741,35.270,11.15
2019-06-12 17:00,31.101,23.668,35.470,11.42
2019-06-12 18:00,31.125,23.681,35.520,11.45
2019-06-12 19:00,31.119,23.697,35.410,11.33
2019-06-12 20:00,31.107,23.691,35.390,11.32
2019-06-12 21:00,31.111,23.688,35.420,11.35
2019-06-12 22:00,31.102,23.706,35.290,11.21
2019-06-12 23:00,31.055,23.680,35.190,11.15
2019-06-13 00:00,30.959,23.627,34.980,11.02
2019-06-13 01:00,30.907,23.603,34.850,10.93
2019-06-13 02:00,30.916,23.634,34.740,10.79
2019-06-13 03:00,30.879,23.626,34.600,10.67
2019-06-13 04:00,30.871,23.617,34.600,10.68
2019-06-13 05:00,30.918,23.645,34.690,10.73
2019-06-13 06:00,30.954,23.665,34.770,10.78
2019-06-13 07:00,31.009,23.701,34.860,10.82
2019-06-13 08:00,31.009,23.701,34.860,10.82
2019-06-13 09:00,31.012,23.712,34.820,10.77
2019-06-13 10:00,30.994,23.696,34.810,10.78
2019-06-13 11:00,30.997,23.695,34.830,10.80
2019-06-13 12:00,30.980,23.690,34.770,10.75
2019-06-13 13:00,30.917,23.657,34.630,10.66
2019-06-13 14:00,30.927,23.665,34.640,10.66
2019-06-13 15:00,30.940,23.659,34.730,10.75
2019-06-13 16:00,30.846,23.627,34.430,10.51
2019-06-13 17:00,30.814,23.593,34.440,10.56
2019-06-13 18:00,30.747,23.538,34.390,10.58
2019-06-13 19:00,30.675,23.474,34.360,10.63
2019-06-13 20:00,30.714,23.494,34.450,10.69
2019-06-13 21:00,30.782,23.548,34.510,10.68
2019-06-13 22:00,30.751,23.525,34.470,10.67
2019-06-13 23:00,30.744,23.517,34.480,10.69
2019-06-14 00:00,30.779,23.538,34.550,10.73
2019-06-14 01:00,30.869,23.583,34.760,10.87
2019-06-14 02:00,30.939,23.648,34.780,10.81
2019-06-14 03:00,30.987,23.687,34.820,10.80
2019-06-14 04:00,31.017,23.710,34.850,10.80
2019-06-14 05:00,31.001,23.693,34.860,10.83
2019-06-14 06:00,30.918,23.633,34.750,10.80
2019-06-14 07:00,30.912,23.636,34.710,10.76
2019-06-14 08:00,30.844,23.605,34.530,10.63
2019-06-14 09:00,30.828,23.599,34.480,10.59
2019-06-14 10:00,30.846,23.615,34.490,10.58
2019-06-14 11:00,30.868,23.630,34.520,10.59
2019-06-14 12:00,30.894,23.654,34.530,10.57
2019-06-14 13:00,30.893,23.655,34.520,10.56
2019-06-14 14:00,30.928,23.687,34.530,10.53
2019-06-14 15:00,30.949,23.714,34.500,10.47
2019-06-14 16:00,30.790,23.644,34.060,10.14
2019-06-14 17:00,30.815,23.637,34.220,10.30
2019-06-14 18:00,30.938,23.637,34.830,10.87
2019-06-14 19:00,30.949,23.632,34.910,10.95
2019-06-14 20:00,30.926,23.618,34.870,10.93
2019-06-14 21:00,30.890,23.586,34.850,10.95
2019-06-14 22:00,30.910,23.601,34.870,10.95
2019-06-14 23:00,30.967,23.611,35.100,11.15
2019-06-15 00:00,31.001,23.632,35.160,11.18
2019-06-15 01:00,30.975,23.620,35.100,11.14
2019-06-15 02:00,30.973,23.621,35.080,11.12
2019-06-15 03:00,30.912,23.588,34.950,11.04
2019-06-15 04:00,30.905,23.627,34.720,10.78
2019-06-15 05:00,30.862,23.621,34.540,10.62
2019-06-15 06:00,30.871,23.674,34.310,10.34
2019-06-15 07:00,30.731,23.629,33.840,9.95
2019-06-15 08:00,30.712,23.634,33.720,9.83
2019-06-15 09:00,30.781,23.710,33.670,9.69
2019-06-15 10:00,30.762,23.683,33.710,9.76
2019-06-15 11:00,30.777,23.669,33.860,9.92
2019-06-15 12:00,30.805,23.693,33.880,9.91
2019-06-15 13:00,30.832,23.675,34.110,10.15
2019-06-15 14:00,30.872,23.662,34.380,10.42
2019-06-15 15:00,30.870,23.640,34.480,10.54
2019-06-15 16:00,30.828,23.588,34.540,10.66
2019-06-15 17:00,30.703,23.508,34.320,10.55
2019-06-15 18:00,30.706,23.485,34.450,10.70
2019-06-15 19:00,30.758,23.511,34.580,10.79
2019-06-15 20:00,30.800,23.552,34.580,10.74
2019-06-15 21:00,30.830,23.575,34.610,10.74
2019-06-15 22:00,,,,
2019-06-15 23:00,30.929,23.664,34.650,10.67
2019-06-16 00:00,30.976,23.668,34.860,10.86
2019-06-16 01:00,31.000,23.694,34.850,10.82
2019-06-16 02:00,31.014,23.711,34.830,10.78
2019-06-16 03:00,31.032,23.751,34.720,10.63
2019-06-16 04:00,31.042,23.782,34.610,10.49
2019-06-16 05:00,31.013,23.770,34.530,10.43
2019-06-16 06:00,30.971,23.740,34.470,10.41
2019-06-16 07:00,30.931,23.743,34.260,10.21
2019-06-16 08:00,30.844,23.683,34.130,10.16
2019-06-16 09:00,30.834,23.696,34.010,10.03
2019-06-16 10:00,30.836,23.706,33.970,9.98
2019-06-16 11:00,30.720,23.568,34.100,10.27
2019-06-16 12:00,30.702,23.541,34.150,10.35
2019-06-16 13:00,30.710,23.539,34.200,10.40
2019-06-16 14:00,30.720,23.525,34.320,10.53
2019-06-16 15:00,30.706,23.474,34.510,10.77
2019-06-16 16:00,30.701,23.430,34.700,11.00
2019-06-16 17:00,30.702,23.475,34.480,10.74
2019-06-16 18:00,30.736,23.497,34.540,10.77
2019-06-16 19:00,30.799,23.541,34.630,10.80
2019-06-16 20:00,30.833,23.574,34.630,10.76
2019-06-16 21:00,30.850,23.591,34.630,10.74
2019-06-16 22:00,30.851,23.590,34.640,10.75
2019-06-16 23:00,30.862,23.621,34.540,10.62
2019-06-17 00:00,30.866,23.631,34.510,10.58
2019-06-17 01:00,30.841,23.594,34.570,10.68
2019-06-17 02:00,30.779,23.538,34.550,10.73
2019-06-17 03:00,30.754,23.513,34.550,10.76
2019-06-17 04:00,30.751,23.502,34.590,10.81
2019-06-17 05:00,30.729,23.476,34.610,10.86
2019-06-17 06:00,30.794,23.520,34.710,10.90
2019-06-17 07:00,30.737,23.508,34.490,10.71
2019-06-17 08:00,30.662,23.456,34.380,10.67
2019-06-17 09:00,30.646,23.461,34.280,10.57
2019-06-17 10:00,30.627,23.435,34.320,10.64
2019-06-17 11:00,30.633,23.432,34.360,10.68
2019-06-17 12:00,30.662,23.411,34.610,10.94
2019-06-17 13:00,30.696,23.409,34.780,11.10
2019-06-17 14:00,30.752,23.395,35.120,11.43
2019-06-17 15:00,30.718,23.288,35.470,11.88
2019-06-17 16:00,30.787,23.365,35.430,11.75
2019-06-17 17:00,30.838,23.401,35.500,11.77
2019-06-17 18:00,30.791,23.189,36.270,12.72
2019-06-17 19:00,30.789,23.104,36.640,13.15
2019-06-17 20:00,30.773,23.131,36.450,12.95
2019-06-17 21:00,30.768,23.246,35.900,12.32
2019-06-17 22:00,30.764,23.221,36.000,12.44
2019-06-17 23:00,30.748,23.258,35.750,12.17
2019-06-18 00:00,30.737,23.238,35.790,12.23
2019-06-18 01:00,30.726,23.245,35.710,12.15
2019-06-18 02:00,30.746,23.324,35.430,11.80
2019-06-18 03:00,30.772,23.361,35.380,11.71
2019-06-18 04:00,30.720,23.325,35.300,11.68
2019-06-18 05:00,30.679,23.345,35.010,11.39
2019-06-18 06:00,30.660,23.354,34.880,11.26
2019-06-18 07:00,30.661,23.365,34.830,11.20
2019-06-18 08:00,30.602,23.331,34.710,11.13
2019-06-18 09:00,30.576,23.295,34.760,11.22
2019-06-18 10:00,30.576,23.330,34.590,11.02
2019-06-18 11:00,30.574,23.342,34.520,10.94
2019-06-18 12:00,30.572,23.297,34.730,11.19
2019-06-18 13:00,30.573,23.308,34.680,11.13
2019-06-18 14:00,30.598,23.321,34.740,11.17
2019-06-18 15:00,30.582,23.258,34.970,11.46
2019-06-18 16:00,30.599,23.250,35.090,11.58
2019-06-18 17:00,30.616,23.229,35.270,11.77
2019-06-18 18:00,30.596,23.113,35.720,12.32
2019-06-18 19:00,30.537,23.058,35.700,12.37
2019-06-18 20:00,30.533,23.060,35.670,12.34
2019-06-18 21:00,30.584,23.120,35.630,12.23
2019-06-18 22:00,30.571,23.115,35.590,12.20
2019-06-18 23:00,30.579,23.045,35.950,12.61
2019-06-19 00:00,30.611,23.051,36.070,12.71
2019-06-19 01:00,30.614,23.076,35.970,12.59
2019-06-19 02:00,30.624,23.200,35.440,11.96
2019-06-19 03:00,30.746,23.337,35.370,11.73
2019-06-19 04:00,30.812,23.364,35.550,11.86
2019-06-19 05:00,30.892,23.474,35.410,11.60
2019-06-19 06:00,30.955,23.555,35.320,11.42
2019-06-19 07:00,30.823,23.397,35.450,11.73
2019-06-19 08:00,30.795,23.361,35.490,11.81
2019-06-19 09:00,30.761,23.354,35.360,11.70
2019-06-19 10:00,30.743,23.351,35.290,11.64
2019-06-19 11:00,30.834,23.429,35.350,11.60
2019-06-19 12:00,30.804,23.419,35.250,11.52
2019-06-19 13:00,30.779,23.344,35.490,11.83
2019-06-19 14:00,30.617,23.265,35.100,11.57
2019-06-19 15:00,30.594,23.128,35.640,12.23
2019-06-19 16:00,30.655,23.183,35.670,12.19
2019-06-19 17:00,30.652,23.171,35.710,12.24
2019-06-19 18:00,30.753,23.188,36.100,12.57
2019-06-19 19:00,30.737,23.171,36.100,12.59
2019-06-19 20:00,30.733,23.187,36.010,12.49
2019-06-19 21:00,30.711,23.174,35.970,12.47
2019-06-19 22:00,30.735,23.200,35.960,12.43
2019-06-19 23:00,30.723,23.194,35.930,12.41
2019-06-20 00:00,30.739,23.197,35.990,12.46
2019-06-20 01:00,30.740,23.223,35.880,12.33
2019-06-20 02:00,30.748,23.191,36.060,12.53
2019-06-20 03:00,30.776,23.254,35.900,12.31
2019-06-20 04:00,30.744,23.248,35.780,12.21
2019-06-20 05:00,30.718,23.237,35.710,12.16
2019-06-20 06:00,30.710,23.229,35.710,12.17
2019-06-20 07:00,30.707,23.269,35.510,11.94
2019-06-20 08:00,30.704,23.258,35.550,11.99
2019-06-20 09:00,30.714,23.290,35.440,11.85
2019-06-20 10:00,30.731,23.345,35.260,11.62
2019-06-20 11:00,30.747,23.410,35.020,11.32
2019-06-20 12:00,30.766,23.388,35.220,11.53
2019-06-20 13:00,30.775,23.334,35.520,11.87
2019-06-20 14:00,30.811,23.312,35.790,12.14
2019-06-20 15:00,30.826,23.317,35.840,12.18
2019-06-20 16:00,30.847,23.396,35.570,11.84
2019-06-20 17:00,30.822,23.358,35.630,11.94
2019-06-20 18:00,30.806,23.355,35.570,11.89
2019-06-20 19:00,30.779,23.331,35.550,11.90
2019-06-20 20:00,30.773,23.334,35.510,11.86
2019-06-20 21:00,30.755,23.319,35.500,11.87
2019-06-20 22:00,30.764,23.365,35.320,11.65
2019-06-20 23:00,30.988,23.675,34.890,10.88
2019-06-21 00:00,31.070,23.771,34.810,10.69
2019-06-21 01:00,31.058,23.800,34.600,10.46
2019-06-21 02:00,31.210,23.816,35.270,11.06
2019-06-21 03:00,31.252,23.845,35.330,11.08
2019-06-21 04:00,31.272,23.873,35.290,11.01
2019-06-21 05:00,31.300,23.896,35.310,11.00
2019-06-21 06:00,31.276,23.871,35.320,11.04
2019-06-21 07:00,31.250,23.871,35.190,10.92
2019-06-21 08:00,31.221,23.848,35.160,10.92
2019-06-21 09:00,30.922,23.655,34.660,10.69
2019-06-21 10:00,30.924,23.677,34.560,10.57
2019-06-21 11:00,30.930,23.675,34.600,10.61
2019-06-21 12:00,30.833,23.608,34.460,10.56
2019-06-21 13:00,30.782,23.536,34.570,10.75
2019-06-21 14:00,30.784,23.536,34.580,10.76
2019-06-21 15:00,30.883,23.601,34.740,10.83
2019-06-21 16:00,30.953,23.678,34.700,10.70
2019-06-21 17:00,30.915,23.646,34.670,10.71
2019-06-21 18:00,30.931,23.640,34.780,10.82
2019-06-21 19:00,30.952,23.619,34.990,11.04
2019-06-21 20:00,30.962,23.638,34.940,10.97
2019-06-21 21:00,30.931,23.604,34.960,11.03
2019-06-21 22:00,30.942,23.623,34.920,10.97
2019-06-21 23:00,30.953,23.642,34.880,10.91
2019-06-22 00:00,30.967,23.660,34.860,10.87
2019-06-22 01:00,30.947,23.645,34.840,10.87
2019-06-22 02:00,30.947,23.656,34.780,10.80
2019-06-22 03:00,30.932,23.639,34.790,10.83
2019-06-22 04:00,30.935,23.650,34.750,10.78
2019-06-22 05:00,30.904,23.616,34.770,10.84
2019-06-22 06:00,30.885,23.612,34.700,10.78
2019-06-22 07:00,30.913,23.647,34.660,10.70
2019-06-22 08:00,30.839,23.572,34.670,10.80
2019-06-22 09:00,30.815,23.535,34.740,10.91
2019-06-22 10:00,30.919,23.645,34.700,10.74
2019-06-22 11:00,30.973,23.693,34.720,10.70
2019-06-22 12:00,30.962,23.662,34.820,10.83
2019-06-22 13:00,30.939,23.612,34.960,11.02
2019-06-22 14:00,30.824,23.507,34.920,11.11
2019-06-22 15:00,30.781,23.430,35.090,11.36
2019-06-22 16:00,30.736,23.379,35.120,11.45
2019-06-22 17:00,30.719,23.249,35.660,12.10
2019-06-22 18:00,30.783,23.380,35.340,11.65
2019-06-22 19:00,30.798,23.410,35.270,11.55
2019-06-22 20:00,30.783,23.380,35.340,11.65
2019-06-22 21:00,30.757,23.343,35.390,11.74
2019-06-22 22:00,30.737,23.303,35.490,11.88
2019-06-22 23:00,30.710,23.280,35.470,11.89
2019-06-23 00:00,30.771,23.447,34.960,11.22
2019-06-23 01:00,30.818,23.545,34.700,10.86
2019-06-23 02:00,30.956,23.688,34.660,10.65
2019-06-23 03:00,30.822,23.497,34.960,11.16
2019-06-23 04:00,30.801,23.541,34.640,10.81
2019-06-23 05:00,30.802,23.563,34.530,10.68
2019-06-23 06:00,30.816,23.569,34.570,10.71
2019-06-23 07:00,30.876,23.627,34.580,10.65
2019-06-23 08:00,30.886,23.634,34.590,10.65
2019-06-23 09:00,30.892,23.655,34.510,10.55
2019-06-23 10:00,30.844,23.605,34.530,10.63
2019-06-23 11:00,30.812,23.548,34.660,10.82
2019-06-23 12:00,30.805,23.539,34.670,10.84
2019-06-23 13:00,30.852,23.613,34.530,10.62
2019-06-23 14:00,30.890,23.610,34.730,10.81
2019-06-23 15:00,30.792,23.462,34.990,11.23
2019-06-23 16:00,30.283,22.820,35.620,12.59
2019-06-23 17:00,30.537,23.031,35.820,12.51
2019-06-23 18:00,30.780,23.318,35.620,11.98
2019-06-23 19:00,30.756,23.266,35.750,12.16
2019-06-23 20:00,30.808,23.327,35.710,12.05
2019-06-23 21:00,30.839,23.375,35.630,11.92
2019-06-23 22:00,30.840,23.374,35.640,11.93
2019-06-23 23:00,30.846,23.397,35.560,11.83
2019-06-24 00:00,30.756,23.199,36.060,12.52
2019-06-24 01:00,30.569,23.090,35.700,12.33
2019-06-24 02:00,29.829,22.312,35.830,13.41
2019-06-24 03:00,29.771,22.308,35.590,13.20
2019-06-24 04:00,29.805,22.363,35.500,13.05
2019-06-24 05:00,30.080,22.657,35.430,12.62
2019-06-24 06:00,30.410,22.976,35.490,12.28
2019-06-24 07:00,30.464,23.022,35.530,12.26
2019-06-24 08:00,30.395,22.972,35.440,12.24
2019-06-24 09:00,30.384,22.978,35.360,12.16
2019-06-24 10:00,30.445,23.069,35.220,11.92
2019-06-24 11:00,30.505,23.209,34.840,11.40
2019-06-24 12:00,30.321,23.065,34.650,11.40
2019-06-24 13:00,30.392,23.082,34.910,11.62
2019-06-24 14:00,30.449,23.018,35.480,12.22
2019-06-24 15:00,30.715,23.225,35.750,12.21
2019-06-24 16:00,30.703,22.860,37.330,14.05
2019-06-24 17:00,30.694,23.033,36.530,13.14
2019-06-24 18:00,30.698,23.059,36.430,13.02
2019-06-24 19:00,30.720,23.141,36.160,12.68
2019-06-24 20:00,30.736,23.185,36.030,12.51
2019-06-24 21:00,30.743,23.195,36.020,12.49
2019-06-24 22:00,30.734,23.186,36.020,12.50
2019-06-24 23:00,30.710,23.175,35.960,12.46
2019-06-25 00:00,30.691,23.227,35.630,12.10
2019-06-25 01:00,30.659,23.167,35.760,12.29
2019-06-25 02:00,30.610,23.131,35.700,12.28
2019-06-25 03:00,30.587,23.106,35.710,12.32
2019-06-25 04:00,30.486,23.035,35.570,12.28
2019-06-25 05:00,30.391,22.974,35.410,12.21
2019-06-25 06:00,30.311,22.905,35.360,12.25
2019-06-25 07:00,30.146,22.733,35.390,12.49